Theta_e
319 324 323 320 324 329 331 332 332 332 333 333 332 333 332 332 330 329 329 330 330 330 330 328 327 328 327 328 330 329 330 331 330 329 329 329 329 330 331 330 331 332 332 332 333 333 333 333 333 333 334 333 330 330 328 328 326 326 326 326 325 324 325 325 326 326 326 326 325 323 320 317 314 321 334 337 336 336 336 336 336 335 336 336 335
317 323 324 320 322 329 331 330 331 330 331 332 332 332 332 331 331 330 329 330 332 332 330 329 329 329 329 330 331 331 330 331 332 331 330 329 329 329 330 330 331 332 333 333 334 334 334 334 334 334 335 333 332 332 331 329 328 328 328 327 327 326 325 324 324 324 325 325 325 325 323 322 319 319 330 337 337 336 336 335 334 334 335 336 337
317 320 323 319 319 326 331 330 329 327 327 328 329 329 330 330 331 331 330 331 333 333 331 330 329 330 332 332 332 332 332 332 333 331 328 328 327 327 327 328 330 330 331 333 335 335 335 335 335 335 334 333 332 331 331 330 329 330 330 329 329 328 327 326 325 324 324 324 323 324 324 324 323 322 326 332 333 333 334 334 331 330 331 334 336
318 319 320 319 318 324 329 328 327 326 325 326 327 330 331 332 332 333 332 332 333 333 331 331 331 332 333 332 333 332 332 333 332 330 328 328 328 327 326 325 327 328 329 333 334 333 334 336 336 334 333 333 332 331 330 329 330 330 330 330 330 329 328 327 326 326 325 324 324 323 324 323 323 325 327 326 326 324 324 325 322 320 321 325 332
317 317 318 318 320 324 326 324 322 323 325 329 330 329 328 329 329 330 331 330 331 329 328 330 331 332 332 331 332 331 331 332 330 330 329 329 329 329 328 325 326 327 329 333 333 332 334 335 335 334 332 332 332 331 330 329 329 329 329 329 329 329 328 327 326 325 325 325 325 324 324 324 323 328 332 330 328 323 318 318 317 315 312 315 322
316 316 316 318 320 321 321 320 317 318 321 327 327 323 321 321 323 324 325 325 324 324 325 327 327 328 329 330 330 329 330 329 329 329 329 329 329 329 329 326 326 327 329 332 331 331 334 333 332 331 330 330 330 329 328 327 327 327 327 327 327 328 328 327 326 325 325 325 325 325 325 325 324 326 331 332 332 330 328 328 326 321 316 313 314
316 316 316 317 318 317 317 316 314 314 315 318 318 317 317 316 317 317 318 318 319 319 320 321 321 322 324 326 326 326 326 325 325 325 327 328 329 329 328 327 325 326 327 328 328 328 328 328 327 327 327 327 327 326 326 325 325 325 325 325 325 326 326 326 327 326 326 325 325 325 325 326 325 323 326 329 330 330 331 332 332 330 326 321 317
315 316 316 316 316 315 315 314 313 313 313 314 313 314 314 314 313 313 314 314 314 314 315 315 315 315 316 318 319 319 320 319 318 319 322 324 325 326 325 325 324 324 323 324 324 324 324 324 325 325 326 325 326 325 325 325 324 324 324 324 324 324 324 324 325 325 325 325 325 325 326 325 325 323 323 327 328 329 330 329 329 331 331 330 327
315 315 315 315 315 314 314 313 313 313 313 313 313 313 313 313 313 312 313 312 312 312 312 312 312 312 312 313 314 314 314 314 314 315 317 318 319 320 319 319 319 319 319 319 319 320 320 321 322 322 323 323 324 325 325 325 324 324 324 324 324 325 324 324 324 324 325 325 326 325 326 326 325 324 322 324 325 327 330 327 326 327 329 330 331
315 315 315 314 314 314 313 313 313 314 314 313 313 313 313 313 312 312 312 311 311 311 311 311 311 311 311 311 311 311 312 312 312 312 313 313 313 313 313 312 312 313 313 313 313 314 315 315 316 316 317 317 319 320 320 320 320 320 320 320 321 322 323 324 324 325 325 325 326 326 327 327 326 325 324 324 323 323 326 326 325 324 324 325 327
315 315 314 314 314 314 313 314 314 313 313 312 312 312 312 311 311 311 310 310 310 310 309 309 309 309 309 310 310 310 310 310 310 310 310 310 310 310 310 310 310 310 310 310 310 310 310 310 311 311 312 312 313 313 314 314 314 313 313 314 314 315 317 318 320 322 324 325 325 326 326 327 326 326 326 325 324 323 324 324 323 321 320 321 322
315 315 314 314 314 314 314 314 313 313 312 311 310 310 310 310 310 309 309 309 308 309 308 308 308 308 308 307 307 307 307 307 307 307 307 307 307 307 307 307 307 307 307 307 307 307 307 306 306 306 307 307 308 308 308 309 309 309 309 310 310 311 312 312 313 315 318 320 323 324 325 326 326 326 326 326 325 326 326 325 323 320 320 319 319
315 314 314 314 314 314 314 313 313 312 311 310 310 309 309 309 309 309 308 308 308 308 307 307 307 306 305 305 305 304 304 304 304 304 304 304 303 304 303 303 303 303 303 303 303 303 303 303 303 303 303 303 303 304 304 304 304 305 305 306 306 307 308 309 310 310 312 313 316 318 321 323 324 325 324 324 324 326 327 327 328 327 325 323 321
314 314 314 314 314 314 313 313 312 310 310 309 309 309 309 309 308 308 307 307 306 306 305 305 305 304 304 304 304 303 303 303 303 303 303 303 303 303 302 303 302 302 302 302 302 302 303 302 302 302 302 302 302 302 302 303 303 303 303 303 303 304 304 305 306 306 308 309 310 312 314 316 319 321 321 322 322 323 326 328 329 328 326 327 325
314 314 314 314 314 313 313 312 310 310 310 309 309 309 309 308 308 307 306 305 305 304 304 304 304 304 304 304 304 303 303 303 303 303 303 303 303 303 303 303 302 302 302 302 302 302 303 302 303 302 302 302 302 302 302 302 302 302 302 303 303 303 303 303 304 304 304 305 306 308 309 311 313 315 316 320 324 324 325 326 327 326 325 327 327
313 313 313 314 313 313 312 311 310 310 309 309 309 309 308 308 308 307 305 305 304 304 304 304 304 303 304 304 303 303 303 303 303 303 303 303 303 303 303 303 302 303 303 302 303 302 302 302 302 302 302 302 302 302 302 302 302 302 302 302 302 302 303 303 303 303 303 303 304 304 306 308 310 312 313 317 324 326 324 324 325 327 327 326 326
314 313 313 313 313 313 311 311 310 310 309 309 309 309 308 308 307 306 305 304 304 304 304 304 304 303 303 303 303 303 303 303 303 303 303 303 303 303 303 302 303 302 303 303 303 303 303 303 302 302 302 302 302 302 302 302 302 302 302 302 302 302 302 302 303 303 303 303 303 303 303 305 307 310 311 313 318 320 321 323 325 327 327 326 325
314 314 313 313 313 312 311 311 311 310 310 309 309 309 308 308 307 305 304 304 304 304 304 304 304 303 303 303 303 303 303 303 303 303 303 302 302 302 302 302 303 303 303 303 303 304 304 303 304 303 303 302 302 302 301 301 301 301 301 301 302 302 302 302 302 302 303 303 303 303 302 303 304 307 309 310 311 313 316 321 324 325 325 324 323
314 314 313 313 312 312 312 311 311 310 310 309 309 309 309 308 307 305 304 304 304 304 304 304 304 303 303 303 303 303 303 303 303 303 302 302 302 302 302 303 303 304 304 305 305 305 304 304 304 303 303 303 302 302 301 301 301 301 301 301 301 301 301 301 302 302 302 302 302 302 302 302 302 303 304 306 307 308 311 315 318 320 321 321 321
314 314 313 313 312 312 311 311 311 310 310 309 309 309 308 308 307 306 304 304 304 304 303 303 304 303 303 303 303 303 303 303 303 303 302 302 302 303 304 304 305 305 305 305 305 304 304 304 304 304 304 303 303 302 302 301 301 301 301 301 300 301 301 301 301 302 302 302 302 302 302 302 301 302 302 302 303 304 305 307 309 311 313 316 318
314 314 314 313 312 312 311 311 311 310 310 309 309 309 308 308 307 305 304 304 304 303 303 303 303 303 303 303 303 303 303 303 303 303 303 303 303 304 305 305 305 305 305 304 304 304 304 304 304 304 304 304 304 303 302 302 301 301 301 300 300 300 300 300 301 301 301 302 302 302 302 302 302 301 301 301 302 302 302 302 303 303 305 308 310
314 314 314 314 313 312 311 311 311 311 310 310 309 309 308 308 307 305 304 304 303 303 303 303 303 303 303 303 303 303 303 302 302 302 303 304 304 305 305 305 305 304 304 304 304 304 304 304 304 304 304 304 304 304 303 302 302 301 301 300 300 300 300 300 300 301 301 301 301 301 301 301 301 301 301 301 301 301 302 302 302 302 302 303 303
314 314 314 314 314 313 312 311 311 310 310 310 309 308 308 308 307 306 304 304 303 303 303 303 303 303 303 303 303 303 303 302 302 303 303 304 304 305 305 305 304 304 304 304 304 304 304 304 304 304 304 304 304 304 304 303 302 302 301 300 300 300 300 300 300 300 300 300 301 301 301 301 301 301 301 301 301 301 301 301 301 302 302 302 302
315 315 314 314 314 313 313 312 311 310 310 310 309 309 308 308 307 306 304 303 303 303 303 303 303 303 303 303 303 303 303 303 303 303 303 304 304 305 305 304 304 304 304 304 304 303 304 304 304 304 304 304 305 304 304 304 303 302 301 301 300 300 300 300 300 300 300 300 300 300 300 300 301 301 301 301 301 301 301 301 301 302 302 302 302
315 314 314 314 314 314 313 312 311 311 310 310 309 309 308 308 308 307 305 304 303 303 303 303 303 303 303 303 303 303 303 303 303 302 303 304 304 304 304 304 304 303 303 303 303 303 303 304 304 304 304 304 305 305 305 304 303 303 302 301 300 300 300 300 300 300 300 300 300 300 300 300 300 300 300 301 301 301 301 301 301 301 301 302 302
315 314 314 314 314 313 313 312 311 311 310 310 309 309 308 308 308 307 306 304 303 303 303 303 303 303 303 302 303 303 303 303 303 303 302 303 304 304 304 303 303 303 303 303 303 303 303 303 303 304 304 304 305 305 305 304 304 303 302 301 301 300 300 300 299 300 300 300 300 300 300 300 300 300 300 301 301 301 301 301 301 301 301 301 301
315 314 314 314 314 313 313 313 312 311 311 310 309 308 308 308 307 307 307 306 304 304 303 302 302 303 302 302 302 303 303 303 303 302 302 303 303 303 303 303 303 303 303 303 303 303 303 303 303 303 304 304 304 304 304 304 304 303 302 301 301 300 300 299 299 300 300 300 300 300 300 300 300 301 300 301 301 301 301 301 300 300 301 300 301
315 314 314 314 313 313 313 313 312 311 311 310 309 309 308 308 307 307 307 306 305 304 304 302 302 302 302 302 302 302 303 303 303 302 302 302 303 303 303 303 302 302 302 302 302 302 302 302 303 303 303 303 304 304 304 304 303 302 301 301 300 300 299 299 299 299 300 300 300 300 301 301 301 301 301 301 301 300 300 300 300 300 300 300 300
314 314 314 314 313 313 313 313 313 312 311 310 310 309 308 308 307 307 307 307 306 305 303 302 302 302 302 302 302 302 302 303 303 303 302 301 302 302 302 302 302 302 302 302 302 302 302 302 302 303 303 303 303 303 303 303 302 301 301 300 300 299 299 299 299 299 299 299 300 300 301 301 301 301 301 301 300 300 300 300 300 300 300 300 300
315 314 314 314 313 313 313 313 312 312 311 311 310 309 309 308 308 308 307 307 307 306 304 303 302 302 302 302 302 302 302 303 303 303 302 301 301 302 302 302 302 301 302 302 302 302 302 302 302 302 303 303 303 303 302 302 301 301 300 300 299 299 299 299 299 299 299 299 300 300 300 300 301 301 300 300 300 300 300 300 300 299 299 299 299
315 314 314 314 313 313 313 312 312 312 311 311 310 310 309 309 309 308 307 307 306 306 305 304 303 302 302 302 302 302 302 303 303 303 302 301 300 301 301 301 301 301 301 301 301 301 301 302 302 302 302 302 303 303 302 302 301 300 300 299 299 298 298 298 298 299 299 299 299 299 300 300 300 300 300 300 300 300 299 299 299 299 299 299 299
315 315 315 314 313 313 312 312 312 312 312 311 311 310 310 309 309 308 307 307 307 306 306 305 304 304 303 302 302 302 302 303 303 303 302 300 300 300 301 301 301 301 301 301 301 301 301 301 302 302 302 302 302 302 302 301 300 300 299 299 298 298 298 298 298 298 298 299 299 299 299 299 299 299 299 299 299 299 299 299 298 298 298 298 298
315 315 314 314 314 313 312 312 312 312 311 311 311 311 310 310 309 308 307 307 306 306 306 306 305 305 303 303 302 302 302 302 303 303 302 300 300 300 300 300 300 301 301 301 301 301 301 301 301 301 301 302 302 302 302 301 300 299 299 298 298 297 297 297 297 298 298 298 299 299 299 298 298 298 298 298 298 298 298 298 298 298 298 298 298
315 315 314 314 314 313 313 312 312 311 311 311 311 310 310 310 309 308 307 306 306 306 306 306 305 305 304 303 302 302 302 302 303 302 302 301 300 300 300 300 300 300 300 300 300 300 301 301 301 301 301 301 302 302 302 301 300 299 298 298 297 297 297 297 297 298 298 298 298 298 298 298 298 297 298 298 298 298 298 298 298 297 297 297 298
315 314 314 314 314 313 313 312 312 311 311 310 310 310 310 310 309 308 307 307 306 306 306 306 305 304 304 303 302 301 301 302 302 302 302 301 300 299 299 300 300 300 300 300 300 300 300 300 300 300 300 301 301 302 302 302 301 299 298 297 297 297 297 297 297 297 298 298 298 298 298 298 297 297 297 298 298 298 298 297 297 297 298 298 298
315 314 314 314 313 313 313 312 312 311 311 310 310 310 310 309 309 308 307 307 306 306 306 305 305 304 304 303 302 301 301 302 302 302 301 300 300 299 299 299 300 300 300 300 300 300 300 300 300 300 300 301 301 302 302 302 301 300 298 298 297 297 297 297 297 297 297 298 298 298 297 297 297 297 297 298 298 298 298 297 297 297 297 298 298
315 314 314 314 314 313 313 312 312 312 311 310 310 309 309 309 309 308 307 307 306 306 305 305 305 304 304 303 302 301 301 301 302 301 301 300 299 299 299 299 300 300 300 300 300 300 300 300 300 300 300 300 301 301 301 301 301 300 299 298 297 297 297 297 297 297 297 297 297 297 297 296 297 297 297 297 297 297 297 297 297 297 297 297 297
314 314 314 314 313 313 312 313 312 312 311 310 309 309 309 308 308 307 307 306 306 305 305 304 304 304 304 303 302 301 300 301 301 301 300 299 299 298 299 299 299 299 299 300 299 299 299 299 300 299 300 300 300 301 301 301 300 300 299 298 297 297 296 297 297 297 297 296 296 296 296 296 296 296 296 297 297 297 296 295 296 296 296 296 296
314 314 314 313 313 313 312 312 312 311 310 309 308 308 308 307 307 306 305 305 305 304 304 304 304 304 303 303 301 301 300 300 301 301 300 299 299 298 298 299 299 299 299 299 299 299 299 299 299 299 299 300 300 300 300 300 300 299 298 297 297 296 296 297 296 296 296 296 296 296 296 295 295 295 295 295 296 295 295 295 294 295 295 296 296
314 314 313 313 313 312 312 311 311 311 310 309 308 307 307 307 306 306 305 305 304 304 304 303 303 303 303 302 302 301 300 300 300 300 300 299 298 298 298 298 299 299 299 299 299 299 299 299 299 299 299 299 299 299 299 299 299 299 298 297 297 296 296 296 296 296 295 295 296 295 295 294 294 294 294 294 294 294 294 294 294 294 295 295 295
314 313 313 313 312 312 312 311 311 310 310 309 308 308 307 307 307 307 307 306 305 304 304 303 303 303 303 302 302 301 300 300 300 300 299 299 298 298 298 298 298 299 299 299 298 298 298 298 298 298 298 298 298 297 297 298 298 298 298 298 297 296 296 296 296 295 294 295 295 295 294 294 294 294 294 294 293 293 293 293 294 294 294 294 294
313 314 313 313 312 312 312 311 311 311 310 310 309 309 309 309 308 308 308 307 306 306 305 305 303 303 303 302 302 301 300 299 299 299 299 299 298 298 298 298 298 298 298 298 298 298 298 298 298 298 298 298 297 297 297 297 297 296 297 297 296 295 295 295 296 295 294 294 295 294 294 294 294 294 294 294 293 293 293 293 293 293 293 293 294
313 313 313 313 312 312 311 311 311 310 310 310 310 309 309 308 308 308 308 307 307 306 306 305 304 303 302 302 302 301 300 299 299 299 299 298 298 298 298 298 298 298 298 298 298 298 298 298 298 298 298 297 297 297 296 296 296 295 295 295 295 294 294 295 295 294 294 294 294 294 294 293 294 294 294 294 293 293 293 293 293 293 293 293 293
313 313 313 312 312 312 311 311 311 310 310 310 310 309 308 307 307 306 306 306 306 305 304 304 303 302 302 302 302 301 300 299 299 299 298 298 298 297 297 297 297 298 298 298 298 298 298 297 297 297 297 297 297 297 296 296 295 295 294 293 293 293 293 293 293 294 295 294 294 294 294 294 294 294 294 294 294 294 293 293 293 293 293 293 293
314 313 313 313 312 312 311 311 311 310 310 310 309 309 308 307 306 305 304 304 304 303 303 304 303 303 302 302 302 301 300 298 298 298 298 298 297 297 297 297 297 297 297 297 297 297 297 297 297 297 297 297 297 297 296 295 294 294 293 292 292 292 291 291 292 294 295 294 294 294 294 294 294 294 294 294 294 293 293 293 293 292 293 293 293
314 314 313 313 313 312 311 311 310 310 310 309 309 308 308 307 306 306 305 305 304 304 305 305 305 304 304 303 302 301 300 299 298 298 298 297 297 296 296 296 297 297 297 297 297 297 297 297 297 297 297 297 297 297 296 295 294 293 292 292 291 291 291 291 290 292 294 295 295 295 294 294 294 294 294 294 293 293 293 293 293 293 293 293 293
314 314 313 313 312 312 311 311 310 310 309 309 308 308 308 307 307 307 307 307 306 307 307 306 305 304 304 303 302 301 300 299 298 297 297 297 296 296 296 296 296 296 297 297 297 297 297 297 297 297 297 297 297 297 296 296 294 293 292 291 291 291 291 290 289 289 291 293 295 294 294 294 294 294 293 293 293 293 293 293 293 293 293 293 293
314 314 313 313 312 311 311 310 310 309 309 309 308 308 308 308 308 307 306 306 306 307 306 305 305 304 303 302 301 301 300 299 298 297 297 296 296 296 296 296 296 296 296 297 296 296 296 296 296 296 297 297 297 297 297 296 295 293 292 291 291 290 290 290 289 288 288 290 293 295 294 293 293 293 293 293 293 293 293 293 293 293 292 292 292
314 314 313 313 312 311 310 310 309 309 309 308 308 308 308 308 307 307 306 306 305 305 304 304 304 303 303 302 301 301 300 299 298 297 297 296 296 296 295 295 296 296 296 296 296 296 296 296 296 296 296 296 297 297 297 296 295 294 292 291 290 290 290 289 288 288 287 287 290 292 294 294 294 295 294 293 293 293 293 293 293 293 292 292 292
314 314 313 313 312 311 310 309 309 309 308 308 308 308 307 307 307 307 307 306 305 304 303 303 303 302 302 302 301 300 300 299 298 297 296 296 295 295 295 295 295 295 295 296 296 296 296 296 296 296 296 296 296 296 296 296 295 293 291 290 290 290 289 289 288 287 287 286 286 288 290 291 292 295 295 293 293 293 294 294 293 293 292 292 292
313 314 313 312 311 310 310 309 309 308 308 308 307 307 307 307 307 307 307 306 305 305 304 303 303 302 302 301 301 300 300 299 298 297 296 296 295 295 295 295 295 295 295 295 295 295 295 295 296 296 296 296 296 296 296 296 294 293 291 290 290 289 289 289 288 287 286 286 286 286 287 287 288 291 294 294 294 294 294 294 294 293 293 292 292
Wind_Speed
20 18 17 16 15 14 13 13 11 11 11 11 11 9 8 8 8 7 6 5 4 3 3 2 1 1 0 1 1 1 2 2 3 3 4 5 5 4 4 4 4 3 3 3 3 3 2 2 1 1 2 2 4 4 4 4 5 5 6 7 7 8 8 8 8 8 8 7 6 6 6 6 5 5 4 4 4 3 3 3 3 2 2 3 4
19 19 18 17 15 14 13 13 12 12 12 13 12 10 9 8 9 8 7 7 5 5 5 3 2 1 1 1 1 2 2 2 4 4 5 6 6 5 4 4 3 2 3 2 1 1 1 0 0 0 0 1 2 3 4 4 4 5 6 6 6 7 7 7 7 7 8 8 6 6 6 5 4 4 3 3 3 3 4 4 4 3 3 3 3
18 18 18 17 16 14 13 13 13 13 13 14 13 11 10 9 8 8 8 8 6 6 5 4 3 3 3 3 4 4 3 4 5 5 3 4 4 4 4 3 3 3 3 2 1 1 1 0 0 1 1 2 2 2 2 3 3 5 5 6 6 6 6 6 7 7 7 7 6 6 5 4 4 4 3 2 2 2 3 3 4 4 4 4 4
18 17 18 17 16 15 13 12 12 12 12 13 13 13 12 11 9 9 9 8 8 7 6 5 5 5 5 5 5 4 4 4 3 1 0 1 1 2 2 2 2 2 3 3 2 2 1 0 1 0 1 2 2 2 2 2 2 3 4 4 4 4 5 5 6 7 7 7 7 7 6 5 5 4 4 3 2 1 2 3 5 5 5 5 4
19 18 17 17 16 14 14 13 12 12 12 13 13 13 12 12 11 10 10 9 9 8 8 7 7 7 6 6 5 5 5 4 4 3 3 2 2 2 2 2 1 1 3 2 1 2 1 1 1 1 1 2 3 4 4 3 2 2 2 2 2 2 3 4 5 6 6 6 7 7 7 7 6 4 3 3 4 3 2 3 4 5 5 5 4
19 19 18 17 16 15 15 14 12 12 13 13 12 12 11 11 11 11 11 11 10 10 10 10 10 9 9 8 8 8 7 7 7 6 6 5 5 5 5 5 5 4 4 4 3 2 2 4 4 5 6 6 7 7 7 6 5 4 4 4 4 4 4 4 4 5 6 6 6 6 7 8 8 4 1 1 2 3 3 3 3 4 4 5 4
18 18 18 17 17 15 14 13 12 11 12 12 12 12 11 11 11 11 12 12 12 12 12 12 12 12 12 11 11 10 10 10 9 9 8 8 8 8 8 7 8 8 8 8 8 7 8 9 9 9 9 10 10 10 9 9 8 8 7 7 7 7 7 6 6 6 6 5 5 5 6 6 8 7 3 2 3 3 4 5 5 4 4 5 5
19 18 18 18 17 16 14 13 12 11 11 11 12 12 12 11 11 11 11 11 12 13 12 12 12 12 13 12 12 11 12 12 11 10 10 10 10 10 10 9 9 10 11 11 11 11 12 13 12 12 12 12 12 12 11 11 10 10 10 9 9 9 9 9 8 7 7 6 5 5 4 5 5 6 6 4 5 5 5 6 6 6 5 5 6
21 20 19 19 18 17 15 14 13 12 12 12 12 12 12 11 11 11 11 11 11 11 11 11 11 10 11 11 11 11 11 11 11 11 11 11 11 11 11 10 10 11 11 12 12 13 13 14 14 14 14 14 14 14 14 13 13 12 12 12 11 11 11 11 10 9 8 8 7 6 5 5 4 4 6 6 6 6 7 7 7 7 7 6 6
21 21 21 20 18 16 15 14 14 13 13 13 14 13 13 12 12 11 11 10 10 10 9 9 9 9 9 9 9 9 9 9 9 9 10 10 10 10 10 10 10 10 11 11 11 12 13 13 14 15 15 15 15 15 15 15 15 15 14 14 14 13 13 13 12 11 10 10 9 8 7 7 6 5 5 6 8 8 9 10 9 9 9 8 8
21 22 21 20 19 17 16 15 15 15 15 15 16 15 14 13 12 11 10 10 9 9 8 8 8 8 8 8 8 8 8 8 8 8 8 9 9 9 9 9 9 9 9 10 10 10 11 11 12 12 13 14 14 15 15 15 16 16 16 16 15 15 15 15 14 14 13 12 11 11 10 10 9 8 7 8 8 9 10 11 11 11 11 11 10
21 22 22 21 20 18 17 16 16 15 15 15 15 15 14 13 12 12 11 11 10 10 9 9 8 8 7 7 7 7 7 7 8 8 8 8 8 9 9 9 9 9 9 9 9 9 10 10 10 10 11 11 12 12 13 14 14 15 16 16 16 16 15 15 15 15 15 14 14 14 13 13 12 11 10 9 9 9 9 10 11 11 12 13 13
20 22 22 21 20 18 18 16 16 15 15 14 14 14 13 13 13 12 12 12 12 11 10 9 9 8 7 7 7 7 7 7 6 6 6 6 6 6 6 6 6 6 6 6 6 6 6 7 7 7 8 8 8 8 9 10 11 12 13 14 15 15 16 15 15 15 15 15 15 16 16 15 14 13 12 11 10 9 9 10 10 10 11 11 13
19 21 22 21 20 18 17 16 16 16 15 14 14 13 13 13 13 13 12 12 12 11 10 10 9 8 8 7 7 6 6 5 5 4 4 3 3 3 3 3 3 3 3 3 3 3 3 4 4 5 5 5 5 5 5 6 6 7 8 10 11 12 13 14 15 15 15 15 16 17 17 17 16 15 14 11 11 11 10 10 11 12 12 11 11
19 20 21 21 20 19 18 18 17 16 15 16 15 15 14 14 13 13 12 11 11 10 10 9 9 9 8 8 7 6 6 5 4 4 4 3 3 3 3 2 2 2 2 2 2 2 3 3 4 4 5 5 5 5 5 5 5 5 5 5 6 7 8 10 11 13 14 15 16 17 17 17 17 16 15 10 8 10 10 11 12 13 13 13 12
20 21 21 21 21 20 20 19 19 17 17 17 17 17 16 14 13 12 12 11 10 10 10 9 9 8 8 8 7 6 6 5 5 5 4 4 4 4 4 3 3 3 3 2 3 3 3 3 4 5 5 5 5 6 5 5 5 5 5 4 5 5 5 7 8 9 11 13 15 16 16 16 16 16 16 13 10 11 12 12 12 12 13 14 13
22 23 22 22 22 21 21 21 19 18 18 19 18 18 16 15 13 13 12 12 11 10 10 9 9 8 8 7 7 6 5 5 5 5 5 5 5 5 5 4 4 3 3 3 3 3 3 4 4 4 5 5 6 6 6 6 6 6 6 5 5 4 4 5 6 7 8 11 13 14 15 16 16 16 17 17 17 16 15 15 15 14 14 16 15
23 24 24 23 23 22 22 21 20 19 19 20 19 18 16 15 14 14 13 12 12 11 11 10 10 9 8 7 6 6 6 5 5 5 5 5 5 5 4 4 3 3 2 2 2 2 3 3 4 4 5 5 6 6 7 6 6 6 6 6 6 5 4 4 5 5 6 8 10 12 13 14 15 16 17 18 19 19 17 17 17 18 18 18 18
24 25 25 24 24 24 23 22 21 20 20 20 20 19 17 15 15 14 14 14 13 12 12 12 11 10 8 7 6 6 6 5 5 5 5 5 4 4 3 3 3 3 2 1 1 2 2 4 5 6 6 7 7 7 8 8 8 7 7 7 7 6 5 4 4 5 5 6 7 9 10 11 13 15 16 17 18 19 19 19 20 20 20 21 20
25 26 26 26 26 25 25 24 24 22 21 22 21 20 18 17 16 16 15 14 14 13 13 13 12 10 9 8 7 6 6 5 5 5 5 5 4 4 4 3 3 2 1 1 2 3 5 6 7 8 9 9 9 9 9 10 9 9 9 8 8 7 7 6 5 5 5 5 6 7 7 8 10 12 13 15 16 18 19 20 21 22 22 23 23
26 28 28 28 27 27 27 26 25 24 23 23 22 21 20 19 18 17 17 16 15 14 14 13 12 11 9 8 7 7 6 6 6 6 5 5 5 5 5 4 3 2 1 3 4 6 7 8 9 10 11 11 12 12 12 11 11 11 10 10 10 9 8 8 7 6 6 6 6 6 7 7 8 9 10 11 13 14 16 17 19 20 22 24 24
27 29 29 29 29 29 29 28 27 26 24 24 24 23 22 20 19 19 18 17 16 16 15 14 13 11 10 9 8 7 7 7 7 7 7 7 6 6 5 4 3 3 3 5 6 8 9 10 12 12 13 14 14 14 14 13 13 12 11 11 11 10 10 9 9 8 8 7 7 7 7 7 8 8 8 9 10 11 12 13 14 16 18 20 21
26 27 27 29 30 31 30 30 29 27 26 26 26 25 24 22 21 20 19 19 18 17 17 15 14 13 11 10 9 8 7 8 8 8 8 8 7 7 6 5 4 4 5 6 8 9 10 12 13 14 14 15 15 15 16 15 14 13 12 12 11 11 11 10 10 9 9 9 9 9 9 9 9 9 9 9 9 10 10 10 11 11 12 14 15
24 24 26 28 30 31 31 31 30 29 28 27 28 27 26 24 23 22 21 21 20 19 18 17 16 14 13 12 10 9 9 9 9 9 9 9 8 8 7 6 6 6 6 7 8 10 11 12 13 14 15 15 16 16 16 16 16 15 14 13 12 12 11 11 10 10 10 10 10 10 10 10 10 10 10 10 9 9 9 10 10 10 10 11 11
23 24 27 29 29 30 31 31 31 31 30 29 29 29 28 27 25 24 23 22 21 21 20 19 18 16 15 13 12 11 11 11 11 11 11 11 10 9 8 8 7 7 8 8 9 11 11 12 13 14 15 15 16 16 17 16 16 16 15 14 13 12 12 11 11 11 11 11 11 11 11 11 11 11 10 10 10 9 9 10 9 10 10 10 10
27 28 29 28 28 29 31 31 32 32 32 31 30 30 30 28 27 26 25 24 23 22 21 21 20 18 17 15 14 13 13 12 12 13 13 13 12 11 10 10 9 9 9 10 11 12 13 13 14 15 15 16 16 17 17 17 17 16 16 15 14 13 12 12 11 11 11 11 11 11 11 12 12 12 11 11 11 10 10 10 9 10 10 11 11
30 30 29 29 30 30 31 32 33 33 33 32 32 32 31 29 29 27 26 25 25 24 23 22 21 20 18 17 16 15 13 13 13 14 15 15 14 13 12 12 12 12 12 12 13 13 14 14 15 15 15 16 16 17 17 17 17 16 16 15 14 14 13 13 12 12 11 11 12 12 12 12 12 12 12 12 12 11 11 10 10 10 11 11 11
30 31 31 31 31 31 32 33 33 34 34 34 34 34 32 31 30 29 27 26 26 25 24 23 22 21 20 19 17 16 15 14 15 15 16 16 16 15 15 14 14 14 14 14 14 14 14 14 15 15 15 15 15 15 16 16 16 15 15 15 14 13 13 12 12 12 11 11 11 12 12 12 12 12 12 12 12 11 11 11 11 11 12 12 12
31 31 32 32 32 32 33 33 34 34 35 35 35 35 34 33 33 31 29 28 27 26 25 24 24 23 22 20 19 18 17 16 16 16 17 18 18 17 16 16 15 15 14 14 14 14 14 15 15 15 15 15 14 14 14 14 14 14 13 13 13 12 12 12 11 11 11 11 11 11 12 12 12 12 12 12 11 11 11 11 11 12 12 12 13
32 31 32 32 32 33 34 34 34 34 35 36 37 36 35 35 35 33 31 30 29 27 26 25 25 25 23 22 20 19 18 18 17 18 18 19 19 19 18 17 16 16 15 15 15 15 15 15 15 15 15 15 15 15 14 14 13 13 12 12 12 11 11 11 11 11 10 10 10 10 10 10 10 10 10 11 11 11 11 11 11 11 11 12 12
35 34 34 33 34 34 34 34 35 35 36 37 38 37 37 36 35 34 33 31 30 29 28 27 27 26 25 23 22 21 20 20 19 19 20 20 20 20 19 18 17 16 16 16 15 15 16 16 16 16 16 16 16 16 15 14 13 12 12 12 11 11 11 10 10 10 10 10 9 9 9 8 8 8 9 10 11 11 11 11 10 9 9 10 11
37 36 35 35 35 35 35 36 36 36 37 38 39 39 38 37 36 35 34 33 32 31 30 29 28 27 26 25 24 23 22 21 20 20 21 21 21 21 20 19 18 17 17 16 16 16 16 17 17 16 16 16 17 17 16 14 13 12 12 11 11 11 11 10 10 10 9 8 8 8 8 7 7 7 9 10 10 10 10 9 9 8 8 8 9
36 35 36 37 37 37 36 37 37 37 37 38 39 39 39 38 37 36 35 34 33 33 31 30 29 29 28 27 26 25 24 23 21 21 22 22 22 22 21 20 19 18 17 17 16 16 16 17 17 17 16 16 16 17 16 15 14 13 12 12 12 11 11 10 10 10 9 8 7 7 6 6 7 8 9 9 9 8 8 8 7 7 7 7 8
36 36 38 38 37 38 38 38 38 38 38 38 39 39 39 39 39 37 36 36 35 34 32 31 30 30 29 28 27 27 25 24 23 22 22 22 22 22 22 21 20 19 18 17 17 16 16 16 17 17 16 17 17 17 17 16 14 13 13 12 12 12 11 11 10 9 8 7 6 5 5 6 6 7 7 7 6 6 6 6 6 7 7 8 8
37 37 37 37 38 38 38 39 39 39 38 38 38 38 38 39 39 39 37 37 36 35 34 33 32 31 30 30 29 28 27 25 24 24 23 23 23 23 22 22 21 20 18 18 17 17 16 16 16 17 17 17 18 19 18 17 15 14 13 13 13 12 12 11 10 9 8 6 4 4 5 5 5 5 6 6 6 6 6 6 6 6 7 7 8
37 36 36 37 39 39 39 40 39 39 39 38 37 36 37 38 39 39 38 37 37 36 35 34 33 32 31 31 30 29 28 26 25 25 24 23 23 23 23 22 21 20 19 18 17 17 17 17 17 17 18 18 18 19 18 18 16 15 14 14 13 13 12 11 10 8 6 3 3 5 5 4 4 6 7 6 6 6 5 5 6 6 7 8 8
36 36 37 38 39 40 39 40 39 39 39 38 37 36 36 37 38 39 39 38 37 37 36 35 34 34 33 32 31 30 29 28 26 25 25 24 24 24 24 23 22 21 20 19 18 18 17 17 17 17 18 18 18 18 18 18 16 15 14 14 13 13 12 11 9 6 2 3 5 5 2 5 7 6 6 6 7 7 7 8 8 8 9 9 9
36 37 37 38 38 39 39 40 40 40 40 39 37 35 35 36 37 38 39 39 38 38 37 36 36 35 34 33 32 31 30 29 28 26 25 25 25 25 25 24 23 22 21 20 19 18 18 17 17 18 18 19 19 18 18 17 16 15 14 14 14 13 12 10 7 3 3 6 3 3 7 7 6 6 7 8 8 9 9 10 11 11 11 11 11
37 38 38 39 39 39 40 40 41 42 41 39 37 35 35 35 37 38 40 41 40 39 39 38 37 36 35 34 33 32 31 30 28 27 27 26 27 26 26 25 24 23 22 21 20 18 18 17 17 18 18 18 18 18 18 18 17 16 15 14 14 13 11 8 4 4 5 2 6 8 6 6 8 11 11 10 10 11 12 12 12 13 13 12 12
36 38 40 40 41 40 41 42 42 42 41 41 39 38 37 37 38 39 42 43 43 42 41 40 39 38 36 35 34 33 32 31 29 29 28 27 28 27 26 26 25 24 23 22 20 19 18 17 17 17 18 18 17 18 18 18 17 17 16 14 13 12 10 6 3 5 2 9 10 6 4 8 12 12 12 12 12 13 13 13 14 14 15 14 14
36 39 41 42 42 42 42 42 42 43 43 43 41 40 39 39 39 40 42 43 44 44 43 42 41 39 37 36 35 35 34 33 31 30 29 29 28 28 27 26 26 25 24 22 21 19 18 17 17 17 17 17 17 17 17 18 18 18 17 15 14 11 8 5 5 3 9 13 6 2 6 11 12 12 13 13 13 14 15 15 16 16 16 16 16
36 38 41 42 43 43 43 42 42 43 43 43 42 41 40 39 39 39 40 42 43 44 43 43 42 40 39 38 37 36 35 34 33 32 31 30 30 29 28 27 27 26 25 23 21 19 18 17 17 16 16 17 16 17 17 17 18 19 20 20 16 12 10 5 7 6 16 11 4 5 11 12 12 13 13 13 14 15 16 18 18 18 18 17 17
35 37 40 41 43 43 43 43 42 43 42 42 42 41 40 39 39 38 38 39 41 42 42 42 42 42 41 40 39 37 37 36 35 34 32 31 31 30 29 28 28 27 26 24 22 20 18 17 17 16 17 17 17 17 17 17 17 18 20 21 20 16 10 3 7 15 17 7 6 13 15 14 15 15 14 15 16 17 19 19 20 20 20 19 19
35 38 40 42 43 43 43 43 42 42 41 41 41 41 40 40 39 38 37 37 38 40 41 42 43 43 43 42 41 39 39 38 36 35 33 32 32 31 30 29 29 28 26 25 23 21 19 18 17 17 17 17 17 18 18 17 16 17 18 19 18 14 7 6 17 22 11 6 14 18 17 18 17 16 17 18 19 20 21 21 22 22 21 22 22
34 36 38 40 42 42 42 42 41 41 40 40 41 42 42 42 41 40 40 40 40 41 43 45 46 46 45 44 43 41 40 39 38 36 34 33 33 32 31 30 30 29 28 26 24 22 21 19 18 17 18 18 18 18 18 17 16 16 17 16 13 10 10 18 25 20 12 15 19 19 20 21 19 18 19 20 20 22 22 23 23 23 23 24 24
33 34 35 38 39 40 40 40 40 40 40 41 42 43 43 43 42 42 43 44 44 46 46 47 47 46 46 45 44 42 41 40 39 37 36 35 34 33 32 32 31 30 29 27 26 24 22 20 18 18 18 18 18 18 18 17 17 16 16 16 14 13 18 22 21 19 23 23 19 19 24 22 20 20 21 22 23 23 23 23 23 24 25 25 25
32 32 34 37 38 39 39 39 39 39 40 41 42 43 43 43 43 43 43 44 45 45 45 45 45 44 45 45 44 42 41 40 39 38 37 36 35 34 33 33 32 31 30 29 27 25 23 21 19 18 18 19 18 18 18 17 17 16 16 17 17 17 18 19 19 22 28 28 25 24 24 23 23 23 23 25 25 24 24 25 25 25 26 26 26
30 32 34 36 37 38 38 38 38 38 39 40 41 42 42 43 43 44 44 45 44 43 42 42 43 43 44 43 43 42 41 41 40 40 38 37 36 35 34 34 33 32 31 30 28 26 24 22 20 19 19 19 19 18 18 18 17 17 17 17 17 17 16 16 17 18 22 29 35 32 28 28 27 24 24 27 26 26 27 27 28 27 27 28 27
28 30 32 34 35 36 37 37 38 38 39 39 40 40 41 42 43 44 44 44 44 43 43 42 42 43 43 43 43 43 42 41 41 40 39 38 37 36 36 35 34 33 32 30 29 27 25 23 21 20 19 19 19 19 18 19 18 17 18 18 17 16 16 14 14 14 16 23 30 32 34 36 32 25 26 30 28 27 29 29 29 30 31 30 28
26 28 31 33 35 35 36 37 37 38 38 39 40 40 41 43 43 44 44 44 44 44 44 44 44 44 44 44 44 43 43 42 42 41 40 39 38 37 37 36 35 34 32 31 29 27 25 24 22 20 20 19 19 19 19 19 19 18 18 19 18 17 16 14 13 13 14 16 21 26 30 34 36 30 26 31 32 30 29 30 30 32 32 30 29
26 29 32 33 34 35 36 36 36 37 38 39 40 40 42 43 43 43 43 43 43 44 44 45 45 45 45 45 45 44 44 43 42 42 41 40 39 39 38 37 36 34 33 32 30 28 26 24 23 21 20 19 19 19 19 19 19 19 19 19 19 18 17 16 14 14 15 16 20 25 27 29 34 33 28 31 33 31 30 30 31 32 32 31 30
Wind_Direction
191 187 188 194 190 181 184 183 180 177 177 186 185 185 189 191 200 202 201 201 201 196 178 153 121 99 53 85 67 58 70 58 52 48 47 47 43 44 44 42 48 58 69 75 74 73 80 80 78 56 41 36 25 11 3 8 18 28 31 29 29 31 35 36 39 44 46 47 47 47 44 43 46 52 61 61 48 38 40 41 40 33 27 29 23
187 187 190 195 193 188 192 192 189 186 185 185 180 181 185 192 195 199 206 201 196 189 187 173 160 213 212 176 144 107 98 98 89 78 65 58 54 53 52 45 46 49 53 47 54 66 79 89 169 152 46 3 11 7 356 356 5 15 19 21 22 24 28 29 28 31 36 36 38 45 49 49 50 58 78 82 58 34 33 39 37 27 12 7 8
187 187 189 195 196 194 196 199 201 196 195 192 183 180 179 185 184 186 193 188 179 173 179 162 160 183 150 142 132 119 115 119 110 98 69 52 56 60 63 57 53 55 49 33 56 60 6 125 170 264 324 347 357 352 354 358 7 9 10 12 14 20 25 27 25 22 23 22 21 27 36 34 45 69 81 90 79 37 24 20 18 14 11 3 357
189 188 189 193 196 197 200 205 210 203 196 193 185 181 177 176 173 176 178 174 172 167 168 153 154 160 152 149 140 141 138 137 137 130 317 8 74 66 74 80 75 70 66 53 53 46 16 148 131 35 332 342 337 329 331 340 11 12 9 13 13 21 25 27 22 16 12 8 5 2 4 4 26 59 49 40 36 3 347 342 344 349 357 359 355
188 189 192 192 194 197 202 209 212 205 196 191 186 185 185 182 179 184 184 180 181 181 179 174 172 174 180 179 176 187 185 200 223 237 242 233 215 212 218 210 182 136 104 103 94 63 66 225 198 194 273 289 288 292 298 301 313 323 334 341 339 349 358 2 357 354 353 353 353 348 347 346 0 42 48 27 28 23 359 343 338 340 344 350 353
190 188 193 194 195 198 203 209 211 209 201 198 198 201 204 198 194 197 198 198 199 201 199 197 198 199 205 207 212 215 219 233 238 240 240 236 231 226 229 226 217 211 190 184 200 180 180 218 234 249 264 267 270 276 281 284 285 282 278 279 282 285 288 301 312 319 325 330 336 334 336 338 338 349 35 1 11 23 5 349 343 344 343 345 351
193 188 191 195 198 200 205 208 209 210 206 206 210 213 213 208 204 205 208 209 209 210 210 209 210 210 213 216 219 221 227 234 239 242 242 242 240 238 238 234 231 227 225 225 228 230 236 245 256 264 267 265 266 269 272 274 275 275 272 269 268 267 266 271 280 288 293 299 307 314 324 333 329 326 330 306 301 325 338 344 342 340 340 340 342
192 189 191 196 200 202 205 204 205 209 210 211 212 212 210 208 204 206 209 210 212 214 215 216 218 217 219 221 222 227 232 238 243 245 245 247 248 249 249 246 244 240 238 239 241 246 252 258 263 267 269 269 270 270 271 271 271 270 270 269 267 266 265 266 267 271 274 276 279 287 299 314 322 320 319 311 301 303 312 323 325 325 329 333 335
189 189 192 197 200 200 201 200 202 206 212 217 218 218 213 210 206 207 209 211 214 216 218 219 223 225 226 229 232 235 238 244 248 250 252 254 258 259 261 260 256 254 250 249 249 250 252 257 260 264 268 270 272 273 274 273 272 271 270 269 268 269 268 268 266 265 265 266 268 268 270 277 287 298 302 299 296 293 295 302 305 306 311 317 324
187 188 192 196 198 199 200 200 203 206 212 219 222 223 221 219 215 213 214 217 220 223 224 223 221 220 223 228 231 237 240 244 247 251 255 259 264 267 268 267 265 261 259 258 256 254 253 254 256 259 263 266 269 272 274 276 276 275 273 271 269 269 268 268 266 265 263 261 260 259 259 261 262 263 271 279 282 284 283 288 292 295 297 299 303
187 190 192 195 197 199 203 204 208 211 214 218 220 219 219 219 216 215 215 216 219 222 223 222 219 217 217 221 226 234 239 242 246 249 253 257 260 263 264 264 264 264 264 264 263 263 261 260 259 259 261 264 267 270 273 277 278 279 278 276 273 270 268 266 265 264 262 261 259 257 256 257 256 253 255 265 275 281 281 281 284 289 292 290 289
190 193 194 196 198 200 205 210 213 217 219 217 214 210 208 207 206 206 207 209 210 213 214 214 215 216 216 219 224 229 235 239 243 246 248 250 253 257 259 261 263 265 266 267 268 269 269 270 270 269 267 266 267 269 272 274 277 279 280 280 279 276 273 270 267 265 262 260 259 257 255 254 253 253 254 259 269 277 278 278 281 285 288 289 288
196 197 198 199 200 203 207 212 215 217 219 215 209 202 199 197 197 200 202 203 204 205 205 206 207 209 212 215 220 223 227 230 234 239 241 245 247 250 252 255 257 259 263 265 268 269 272 274 276 279 279 278 275 274 272 273 274 275 277 279 280 280 278 275 271 267 264 260 257 256 254 253 252 253 253 255 262 267 268 271 278 283 283 286 286
203 202 201 202 202 207 210 212 213 213 213 211 206 201 199 197 198 198 199 198 197 197 195 195 196 197 201 203 207 208 210 211 215 215 217 222 222 228 230 234 237 242 250 258 270 276 284 287 291 293 296 299 299 296 291 286 281 277 278 279 280 280 280 277 274 269 264 260 256 254 253 252 252 252 251 256 263 266 267 266 272 278 277 278 279
208 208 205 204 205 208 210 210 208 208 208 207 205 202 202 200 199 197 195 192 189 188 187 187 187 188 189 189 190 189 190 189 190 191 193 198 199 207 212 222 230 236 250 262 277 288 294 299 304 305 308 310 311 311 310 306 301 298 294 290 287 282 279 276 273 269 264 260 256 254 254 253 252 251 248 248 256 260 260 262 270 278 275 270 270
207 211 211 209 208 209 208 207 206 206 205 205 204 203 203 200 199 197 193 190 188 187 186 185 184 184 184 181 181 179 181 183 187 193 196 201 205 209 213 221 227 236 250 261 277 287 295 300 303 306 307 307 309 309 309 309 308 307 304 300 296 290 283 277 271 267 263 260 257 254 254 253 251 250 246 236 229 236 243 247 255 264 266 263 261
207 211 213 213 213 211 210 208 208 207 206 206 206 203 201 200 197 196 193 191 190 189 188 186 184 182 181 178 178 179 182 187 193 197 200 202 202 204 207 211 217 224 237 251 267 278 288 294 298 302 305 307 309 309 310 311 310 310 307 304 299 293 284 277 271 265 262 259 257 255 252 250 248 246 246 241 235 234 236 238 241 244 251 256 257
210 213 214 215 216 215 214 212 213 210 209 209 208 206 202 201 198 194 192 191 191 190 189 186 184 182 181 180 181 184 187 192 196 199 201 200 200 200 201 201 205 211 221 234 252 267 285 295 305 311 315 318 317 318 317 316 314 312 310 308 303 296 285 274 267 261 261 261 260 258 254 251 248 245 246 246 244 242 237 234 238 241 245 250 253
213 217 216 217 218 218 217 215 215 212 212 212 211 209 206 204 200 197 194 192 191 190 189 186 185 183 183 185 187 190 193 196 197 200 201 201 202 199 199 198 197 200 214 232 270 307 327 332 337 338 336 334 330 327 322 318 315 312 310 307 304 300 293 280 268 257 252 253 257 260 259 254 251 249 248 249 249 249 246 242 242 243 247 251 251
215 218 219 220 219 219 220 218 217 214 213 214 214 212 208 206 203 201 197 194 192 190 189 186 186 186 188 190 194 198 199 203 204 206 207 205 205 201 201 199 204 213 238 309 338 344 349 348 348 346 343 339 334 330 325 320 315 312 308 304 301 298 296 288 278 266 255 247 247 250 252 252 251 252 252 253 253 254 254 252 251 250 251 253 254
215 219 221 222 221 221 221 220 219 217 215 215 215 213 210 207 205 203 198 195 194 192 192 190 191 191 194 196 198 202 203 207 210 213 214 211 210 209 211 212 222 246 298 327 338 341 343 343 342 341 339 336 334 330 325 320 315 311 306 302 299 295 294 291 286 279 270 259 249 244 242 243 243 246 248 250 252 254 256 257 258 256 256 257 257
217 219 221 223 223 224 223 222 222 220 218 217 216 215 212 209 207 205 201 198 196 196 196 195 196 198 202 205 208 210 211 215 216 218 218 218 223 223 228 237 251 281 311 325 332 334 335 335 334 333 332 331 329 327 323 319 315 311 306 302 298 294 290 287 286 282 276 270 262 253 246 242 238 237 238 240 243 247 252 256 257 257 259 259 260
221 223 225 225 225 225 225 225 224 223 221 220 218 217 215 211 209 207 203 200 199 199 199 199 201 204 209 213 217 220 223 227 228 227 228 229 232 235 242 253 269 292 309 320 324 325 325 324 323 323 323 323 322 321 319 316 314 310 307 303 298 294 289 284 281 278 275 271 267 263 257 252 246 240 237 237 238 242 246 251 255 257 259 259 260
232 231 229 228 227 227 227 227 226 225 223 221 220 219 217 214 212 210 207 203 202 201 202 204 206 209 214 219 224 227 233 237 239 239 240 240 239 242 248 258 272 287 299 306 310 310 310 310 310 311 311 313 314 315 314 313 311 309 306 302 298 294 290 286 281 277 274 270 268 266 264 261 257 253 248 245 244 245 246 250 255 258 261 263 263
241 234 231 230 230 230 229 228 227 226 224 223 222 221 220 217 215 212 210 206 205 205 205 207 209 214 218 222 226 229 237 240 243 245 244 245 244 246 250 256 266 276 284 288 291 292 293 295 296 297 300 302 306 308 309 309 308 306 304 301 298 295 292 289 285 281 277 275 273 271 269 268 266 265 262 260 258 256 254 255 257 259 261 262 264
239 236 235 233 232 232 232 230 228 227 225 224 223 224 223 221 219 216 214 210 208 209 209 211 212 217 220 222 227 231 236 239 243 245 245 246 244 245 247 251 257 263 269 272 275 278 281 284 286 288 292 296 301 305 307 308 307 305 302 300 298 296 294 291 289 286 284 282 281 279 277 275 274 273 272 271 270 268 266 266 265 263 263 262 263
242 242 240 236 233 231 232 231 229 228 226 224 223 224 224 223 222 220 218 215 213 213 213 214 216 219 221 224 230 235 237 240 242 244 244 243 242 241 243 247 251 256 260 264 268 271 275 278 281 285 290 296 302 307 309 309 307 305 301 299 298 296 295 293 291 289 288 287 285 285 283 281 281 280 279 279 277 276 276 277 276 272 270 269 269
245 244 242 238 235 232 231 232 231 229 227 226 225 225 224 224 223 222 220 219 218 218 217 217 220 222 224 227 232 236 238 240 242 243 244 242 241 240 240 245 248 253 257 262 266 270 273 276 281 287 293 301 307 309 310 309 306 303 300 297 296 294 294 293 292 291 289 287 286 285 284 283 283 282 282 282 280 279 279 279 278 276 276 275 275
243 243 242 240 239 235 233 233 232 231 229 227 227 227 225 225 225 224 222 221 220 220 220 220 223 225 227 229 232 236 239 241 243 243 244 242 241 241 242 246 250 254 259 263 267 271 275 279 284 289 296 304 309 311 310 308 305 302 299 296 294 293 292 292 292 292 290 287 284 282 282 282 281 282 281 279 278 276 274 272 270 271 273 273 272
244 243 242 242 241 238 235 234 234 232 230 228 228 228 227 227 227 226 224 224 223 221 221 222 224 227 229 230 233 237 240 242 244 244 244 243 241 242 244 247 252 256 260 264 267 271 275 280 285 291 298 304 308 311 311 309 307 303 300 298 297 296 295 294 293 292 290 288 286 284 283 283 282 281 278 275 272 270 268 265 264 265 265 265 265
245 243 243 243 241 239 237 235 234 233 232 230 230 229 229 229 229 228 226 225 224 222 222 223 225 228 230 231 233 235 238 240 242 242 242 242 242 242 245 248 251 254 258 262 266 270 274 279 285 291 297 302 306 309 311 312 309 306 303 302 301 301 301 299 296 292 289 289 289 288 289 289 286 279 273 269 266 265 265 264 264 265 263 263 263
246 246 245 243 241 241 239 236 234 233 232 231 230 230 230 230 230 229 227 226 225 225 224 225 227 229 231 231 233 234 236 239 239 241 241 241 242 242 245 247 249 253 256 259 263 268 272 278 283 290 296 300 305 308 311 312 310 308 307 306 306 306 307 304 300 295 292 292 291 290 289 284 276 265 260 258 258 259 261 264 266 267 268 268 268
251 251 247 245 244 243 240 237 235 233 233 232 231 231 231 231 230 229 228 227 226 227 227 227 228 230 232 232 233 234 235 237 238 239 239 240 241 242 244 246 249 252 254 258 263 268 272 278 283 289 296 301 305 307 310 312 311 311 312 312 311 310 309 305 301 297 294 293 291 286 278 268 259 252 249 247 248 254 263 269 270 269 270 271 274
254 251 249 248 246 244 242 239 236 234 233 232 231 230 231 231 230 229 228 228 228 228 228 228 229 230 231 232 233 234 234 235 236 237 238 239 240 241 244 246 249 251 254 258 262 268 273 279 284 290 296 300 302 304 308 310 310 313 314 315 314 312 310 307 303 300 297 294 286 269 253 243 236 234 237 239 246 257 267 269 268 270 272 275 278
254 251 251 251 248 245 244 242 239 237 234 232 231 230 231 231 230 229 228 229 229 229 229 228 229 230 231 233 233 234 234 235 235 236 237 238 240 241 244 246 249 251 253 258 263 269 274 279 284 289 293 297 299 302 305 308 310 313 315 315 315 314 312 309 306 304 302 294 267 228 207 201 210 232 246 250 254 258 260 265 271 275 279 281 281
256 255 254 251 248 246 244 243 242 239 237 233 231 230 230 231 230 230 229 230 230 230 230 229 230 231 232 233 233 233 234 235 235 236 236 237 239 240 243 245 247 250 253 257 263 268 273 278 283 286 290 293 295 299 302 305 309 312 314 315 315 316 314 312 310 309 305 282 205 174 172 198 259 272 266 260 263 270 283 294 299 298 297 296 293
259 257 255 252 250 247 244 243 242 241 240 236 232 230 230 230 230 230 230 230 231 231 231 230 230 230 232 233 233 233 234 235 235 235 236 236 238 239 241 244 246 248 251 255 260 266 271 276 280 283 285 288 291 295 300 303 308 310 313 315 317 317 314 313 311 307 285 188 164 166 236 294 294 285 278 283 290 300 317 324 323 318 313 310 306
260 257 256 254 252 250 246 243 241 240 240 237 233 231 230 230 230 230 230 231 231 232 232 231 231 231 232 233 233 233 234 235 235 235 235 235 236 237 239 242 244 246 249 253 257 262 269 274 278 281 283 286 290 294 299 302 306 309 313 318 320 318 313 315 310 279 181 170 181 289 308 312 313 315 316 318 318 323 332 331 328 324 319 315 311
260 258 255 253 250 249 247 243 240 238 237 236 234 231 230 229 229 229 229 230 231 231 232 232 232 232 232 233 233 234 234 235 235 235 234 234 235 236 237 239 241 244 246 250 254 259 265 271 276 279 281 286 290 295 299 302 307 311 317 320 319 317 314 316 296 204 184 224 310 317 322 334 334 335 335 335 331 331 333 329 326 323 319 315 311
259 257 254 251 247 245 243 241 239 237 235 233 230 228 228 227 227 227 227 228 229 230 231 231 231 231 232 233 233 234 235 236 235 235 234 234 235 236 237 238 240 242 244 247 250 255 262 268 274 278 282 287 291 297 300 304 309 312 316 318 319 318 318 319 238 199 285 322 322 320 332 340 338 341 342 339 334 330 327 323 322 321 318 316 312
254 252 251 249 247 244 241 240 237 235 233 232 230 228 227 227 226 227 227 227 228 229 230 231 231 231 232 233 234 234 235 236 236 235 235 234 234 235 236 237 239 241 242 245 248 252 259 265 272 276 281 286 293 298 302 307 311 313 314 317 323 324 324 312 224 229 334 328 316 308 329 334 338 342 341 335 332 328 324 322 322 322 320 319 315
254 250 249 247 245 243 241 240 237 235 233 233 233 232 232 232 232 232 230 229 229 231 231 232 232 232 232 232 233 234 234 235 235 235 235 234 235 235 236 237 238 240 241 243 246 251 257 263 269 274 279 285 292 298 303 310 316 321 322 323 327 330 328 298 223 295 333 322 282 315 325 330 334 335 334 332 329 326 325 325 325 325 325 323 320
257 252 249 245 243 241 240 238 236 235 234 234 234 235 235 235 236 236 234 232 233 234 234 235 234 233 233 232 233 233 234 234 234 234 234 234 235 236 236 236 237 239 241 243 245 249 254 260 267 273 278 285 292 297 303 310 317 325 330 328 328 332 337 276 256 312 322 297 302 325 326 328 330 331 332 330 328 326 326 326 326 327 327 325 323
254 248 245 242 241 240 239 238 237 235 234 234 234 235 235 235 235 236 236 236 236 236 235 235 235 234 233 233 233 233 233 234 233 233 234 234 235 234 234 235 236 238 239 241 244 247 251 257 263 270 276 283 290 297 302 309 317 326 332 332 330 332 341 316 312 318 314 295 318 324 325 326 328 331 332 329 326 325 327 329 329 329 327 325 323
251 247 244 243 242 241 240 238 237 236 234 234 233 233 232 232 231 231 231 232 233 233 233 233 232 232 233 233 234 233 233 233 233 233 233 234 234 233 233 234 235 236 237 240 242 245 249 253 259 266 273 279 286 293 299 307 316 325 331 334 330 321 319 324 325 321 310 309 314 319 324 325 327 331 329 326 324 326 329 330 330 329 327 325 324
250 248 245 244 243 242 240 238 237 236 234 233 232 232 232 232 231 230 229 229 229 230 231 231 231 231 232 232 232 233 233 233 233 233 233 233 233 232 232 233 234 235 237 238 240 243 247 250 255 263 270 276 282 287 294 302 310 320 325 328 324 315 317 325 327 320 313 310 306 316 323 323 326 329 327 324 323 326 329 329 328 328 326 324 323
252 247 243 242 241 240 239 238 236 235 234 233 232 233 233 234 235 235 236 234 233 234 234 234 234 234 234 234 233 233 233 233 233 233 233 232 232 232 232 233 234 235 236 238 240 242 244 247 252 260 267 273 278 284 289 295 304 312 318 321 319 317 319 323 324 322 319 313 309 315 320 320 324 327 325 323 323 327 329 328 328 326 324 323 324
251 245 241 240 240 239 238 237 236 235 234 233 233 234 234 235 236 237 238 239 240 241 241 239 238 237 236 236 235 234 234 233 233 233 233 232 232 232 232 232 232 233 235 237 239 241 242 245 250 256 264 270 276 281 286 290 295 304 311 315 315 314 315 318 319 319 319 314 314 318 319 319 321 323 323 321 323 328 328 327 327 325 324 325 326
248 244 243 242 240 238 237 236 235 235 234 233 234 234 235 236 237 237 238 240 241 242 242 242 241 239 238 237 236 235 235 234 233 232 232 232 232 232 232 232 232 233 235 237 238 240 242 245 249 255 261 267 273 277 283 286 290 297 306 310 310 309 309 312 313 311 310 308 312 318 320 317 316 319 324 322 322 326 326 326 326 324 325 327 327
243 243 243 241 239 237 236 235 234 234 234 234 234 234 235 236 236 237 239 239 239 239 240 240 240 240 239 238 237 236 235 235 234 232 231 231 231 232 232 232 232 233 234 236 237 239 241 244 248 253 259 264 269 274 279 282 285 292 301 307 306 305 306 309 308 305 303 297 299 309 317 318 315 316 321 321 321 324 325 324 323 321 322 325 327
239 239 240 239 238 237 236 235 234 233 233 233 234 234 235 236 236 237 238 239 239 239 239 239 239 239 238 238 238 237 237 236 235 234 232 231 231 231 231 231 231 232 233 235 237 238 240 244 247 251 257 262 267 272 277 279 280 287 297 303 304 303 305 308 308 304 302 299 296 301 311 316 313 313 316 316 317 320 322 321 319 317 320 323 325